Location: Hopville
(44.8032°N, 123.1329°W)
Time: 16:29:29
(UTC+00:00)

FALCON 9 DEB - Pass Details

Date: 24 January 2021
Orbit: 372 x 389 km, 53.0° (Epoch: 28 February)

Event Time Altitude Azimuth Distance (km) Brightness Sun altitude
Rises 14:34:31 0° 220° (SW) 2,238 6.5 -11.6°
Reaches altitude 10° 14:36:36 10° 214° (SSW) 1,386 5.5 -11.3°
Maximum altitude 14:39:34 43° 141° (SE) 540 4.1 -10.8°
Drops below altitude 10° 14:42:32 10° 67° (ENE) 1,385 6.5 -10.3°
Sets 14:44:37 0° 61° (ENE) 2,237 7.5 -9.9°
